Temperature
11 11 10 10 9 9 8 8 8 7 6 5 5 4 3 2 2 1 0 -1 -2 -2 -2 -2 -2 -2 -3 -3 -3 -3 -4 -4 -6 -5 -4 -4 -5 -5 -5 -6 -6 -6 -6
10 10 9 9 9 8 8 8 7 7 6 5 4 3 3 2 1 1 -0 -1 -2 -2 -3 -3 -3 -3 -3 -4 -4 -4 -4 -4 -5 -6 -5 -5 -5 -5 -6 -6 -6 -7 -7
9 9 9 8 8 8 8 8 7 6 6 5 4 3 3 2 1 0 -0 -1 -2 -3 -3 -3 -3 -4 -4 -4 -4 -4 -4 -5 -6 -6 -6 -6 -6 -6 -7 -7 -7 -7 -7
8 8 8 8 7 7 7 7 6 6 5 5 4 3 2 2 1 0 -1 -1 -2 -3 -4 -4 -4 -4 -4 -4 -4 -5 -5 -5 -6 -7 -7 -7 -7 -7 -7 -7 -7 -7 -7
7 7 7 7 7 6 6 6 5 5 5 4 3 2 2 1 0 -0 -1 -2 -2 -3 -4 -4 -4 -4 -5 -5 -5 -5 -5 -6 -6 -7 -8 -8 -8 -7 -7 -7 -8 -8 -8
6 6 6 6 5 5 5 4 4 4 3 3 2 2 1 0 -0 -1 -2 -3 -3 -4 -4 -4 -5 -5 -5 -5 -5 -6 -6 -6 -6 -7 -7 -8 -7 -7 -7 -8 -8 -8 -8
6 5 5 4 4 4 4 3 3 2 2 2 1 1 0 -0 -1 -2 -3 -3 -4 -4 -5 -5 -5 -5 -6 -6 -6 -6 -6 -6 -7 -7 -7 -7 -7 -7 -7 -8 -8 -8 -8
5 4 4 4 3 3 3 2 2 1 1 1 0 -0 -1 -1 -2 -3 -3 -4 -4 -5 -5 -5 -6 -6 -6 -6 -6 -6 -6 -6 -6 -7 -7 -7 -7 -7 -7 -8 -8 -8 -8
3 3 3 3 2 2 2 1 1 1 0 0 -0 -1 -1 -1 -2 -3 -4 -4 -5 -5 -5 -6 -6 -6 -6 -6 -7 -7 -7 -6 -7 -7 -7 -7 -7 -7 -7 -8 -8 -8 -9
2 2 2 2 1 1 1 0 0 0 -0 -1 -1 -1 -2 -2 -3 -4 -4 -5 -5 -5 -5 -6 -6 -6 -6 -6 -7 -7 -7 -7 -7 -7 -7 -7 -7 -8 -8 -8 -8 -9 -9
1 1 1 1 1 0 -0 -0 -0 -1 -1 -1 -2 -2 -2 -3 -3 -4 -5 -5 -5 -5 -6 -6 -6 -6 -6 -6 -7 -7 -7 -7 -7 -7 -8 -8 -8 -8 -8 -8 -9 -9 -10
1 1 0 0 -0 -0 -1 -1 -1 -1 -2 -2 -2 -3 -3 -3 -4 -4 -5 -5 -5 -6 -6 -6 -6 -6 -6 -6 -7 -7 -7 -7 -7 -8 -8 -8 -8 -8 -8 -9 -9 -9 -10
-0 -0 -0 -0 -1 -1 -1 -1 -2 -2 -2 -3 -3 -3 -4 -4 -4 -5 -5 -6 -6 -6 -6 -6 -6 -6 -7 -7 -7 -7 -7 -7 -8 -8 -8 -8 -8 -9 -9 -10 -10 -10 -10
-1 -1 -1 -1 -1 -1 -2 -2 -2 -3 -3 -3 -3 -4 -4 -5 -5 -5 -6 -6 -6 -6 -6 -6 -6 -7 -7 -7 -7 -7 -7 -8 -8 -8 -8 -9 -9 -9 -10 -10 -10 -10 -11
-1 -1 -1 -2 -2 -2 -2 -3 -3 -3 -3 -4 -4 -4 -5 -5 -5 -6 -6 -6 -6 -6 -6 -6 -7 -7 -7 -7 -7 -7 -8 -8 -8 -9 -9 -9 -10 -10 -10 -10 -11 -11 -11
-2 -2 -2 -2 -2 -2 -3 -3 -3 -3 -3 -4 -4 -5 -5 -5 -5 -6 -6 -6 -7 -7 -7 -7 -7 -7 -7 -7 -7 -8 -8 -8 -9 -9 -9 -10 -10 -10 -11 -11 -11 -11 -12
-2 -2 -2 -2 -3 -3 -3 -3 -3 -3 -4 -4 -4 -5 -5 -5 -6 -6 -6 -6 -6 -7 -7 -7 -7 -7 -7 -7 -8 -8 -8 -9 -9 -9 -10 -10 -10 -11 -11 -11 -11 -12 -12
-2 -2 -3 -3 -3 -3 -3 -4 -4 -4 -4 -4 -4 -5 -5 -5 -6 -6 -6 -6 -7 -7 -7 -7 -7 -7 -7 -8 -8 -8 -9 -9 -9 -10 -10 -10 -11 -11 -11 -12 -12 -12 -12
-3 -3 -3 -3 -3 -3 -4 -4 -4 -4 -5 -5 -5 -5 -5 -6 -6 -6 -6 -7 -7 -7 -7 -7 -7 -7 -7 -8 -8 -9 -9 -9 -9 -10 -10 -10 -11 -11 -12 -12 -12 -12 -12
-3 -3 -3 -3 -3 -4 -4 -4 -4 -5 -5 -5 -5 -6 -6 -6 -6 -6 -6 -7 -7 -7 -7 -7 -7 -7 -8 -8 -8 -9 -9 -9 -10 -10 -10 -11 -11 -11 -12 -12 -12 -12 -12
-3 -3 -3 -4 -4 -4 -4 -5 -5 -5 -5 -5 -6 -6 -6 -6 -7 -7 -7 -7 -7 -7 -7 -7 -7 -8 -8 -8 -8 -9 -9 -9 -10 -10 -10 -11 -11 -11 -11 -12 -12 -12 -12
-3 -4 -4 -4 -4 -5 -5 -5 -5 -5 -5 -6 -6 -6 -7 -7 -7 -7 -7 -7 -7 -7 -7 -7 -7 -8 -8 -8 -9 -9 -9 -10 -10 -10 -10 -11 -11 -11 -11 -11 -12 -12 -12
-4 -4 -4 -4 -5 -5 -5 -5 -5 -5 -6 -6 -6 -7 -7 -7 -8 -8 -8 -7 -7 -7 -7 -7 -8 -8 -8 -8 -9 -9 -9 -9 -10 -10 -10 -11 -11 -11 -11 -11 -11 -12 -12
-4 -4 -5 -5 -5 -5 -5 -5 -5 -6 -6 -6 -7 -7 -7 -8 -8 -8 -8 -8 -8 -7 -7 -7 -8 -8 -8 -9 -9 -9 -9 -9 -10 -10 -10 -11 -11 -11 -11 -11 -11 -12 -12
-4 -5 -5 -5 -5 -5 -5 -5 -6 -6 -6 -7 -7 -7 -8 -8 -8 -8 -8 -8 -8 -8 -8 -8 -8 -8 -8 -9 -9 -9 -9 -10 -10 -10 -10 -10 -11 -11 -11 -11 -11 -11 -11
-5 -5 -5 -5 -5 -5 -5 -6 -6 -6 -7 -7 -7 -8 -8 -8 -8 -8 -8 -8 -8 -8 -8 -8 -8 -8 -9 -9 -9 -9 -10 -10 -10 -10 -10 -10 -11 -11 -11 -11 -11 -11 -11
Wind_Speed
7 8 10 11 12 12 14 16 16 15 14 16 16 16 17 19 19 20 20 18 20 19 17 18 19 16 13 12 11 11 12 11 15 10 7 7 9 10 12 16 19 20 22
6 7 8 10 10 11 13 14 13 14 14 15 15 16 17 18 19 20 21 21 21 21 20 19 19 16 17 13 12 13 12 12 13 15 10 8 10 10 10 12 14 19 18
6 7 9 9 10 11 12 12 12 13 13 13 14 16 17 17 17 19 20 20 20 21 20 20 19 18 18 15 14 14 13 13 12 12 13 10 9 9 10 12 14 11 17
7 8 9 10 10 11 11 11 11 11 12 13 14 15 15 15 15 16 18 18 18 18 18 18 18 19 19 17 16 16 14 13 12 11 13 11 11 9 9 11 12 10 12
9 10 11 11 11 11 11 11 11 11 12 12 12 13 13 13 13 14 15 16 17 17 17 18 19 23 26 21 17 14 14 13 12 12 13 12 12 10 10 9 12 10 10
10 11 12 12 12 11 11 11 11 11 11 11 12 13 13 12 21 26 19 14 15 16 16 16 18 23 28 32 32 28 23 17 15 15 13 14 13 11 10 10 10 11 12
11 12 13 13 12 11 11 10 11 11 11 11 12 12 13 15 24 27 28 16 14 15 15 14 15 18 25 18 24 30 28 30 27 18 16 15 13 11 10 12 12 13 14
12 13 13 11 11 11 11 11 11 10 10 11 11 11 11 14 23 25 26 18 13 15 15 15 15 15 17 17 15 16 16 17 20 16 13 14 14 11 12 13 14 14 13
14 13 12 11 12 12 12 13 11 11 11 10 9 10 11 13 21 23 23 10 11 14 15 15 16 15 24 27 18 16 16 15 22 26 25 23 25 26 20 11 11 12 14
14 12 12 12 13 13 14 13 11 10 11 10 9 9 10 10 17 21 22 8 10 11 11 14 23 22 25 27 18 15 16 15 12 13 16 19 16 17 23 13 9 11 11
13 13 12 12 13 14 13 12 11 10 10 9 10 9 9 11 15 20 21 10 10 10 10 11 13 25 27 27 24 15 19 15 11 11 11 10 9 8 9 9 9 9 11
14 14 13 12 12 12 13 12 11 10 10 10 9 9 7 8 12 15 20 19 16 11 10 9 12 22 25 26 21 20 23 19 9 8 8 8 8 8 8 8 9 10 11
14 14 13 13 12 12 12 13 11 9 9 8 7 8 7 5 8 16 18 19 20 12 10 15 16 20 21 17 21 22 17 10 7 7 8 8 7 7 6 6 7 8 9
15 14 13 13 13 12 10 9 9 9 9 9 8 8 7 5 5 5 6 8 14 13 10 14 19 19 16 14 13 12 8 7 7 8 7 7 5 5 6 6 6 6 8
15 14 13 12 13 12 11 10 11 9 10 10 8 7 7 7 9 12 8 6 6 8 7 6 6 6 8 7 7 7 7 7 8 6 6 6 6 7 7 6 6 7 8
14 13 12 11 11 11 12 12 13 14 18 18 17 15 11 14 16 15 15 15 15 14 10 6 7 8 8 8 8 7 7 7 7 6 6 6 7 7 7 7 7 8 10
15 15 13 12 12 12 11 12 12 12 14 16 17 17 16 16 16 15 14 13 14 14 9 7 7 8 7 7 7 7 7 7 6 6 7 7 7 7 8 9 8 9 10
14 16 15 12 12 12 11 11 11 11 11 8 10 15 15 15 15 14 13 11 8 9 6 7 7 7 6 7 7 7 6 6 6 6 7 7 7 8 9 9 9 9 10
14 13 13 12 12 12 11 11 10 10 10 9 7 7 11 11 12 12 11 7 6 6 6 6 6 6 6 6 6 6 6 6 6 6 7 7 7 8 9 9 9 14 13
13 19 18 13 12 11 10 10 10 9 9 8 7 6 4 5 4 5 6 5 5 6 6 6 5 6 6 6 6 6 6 6 7 7 7 7 8 8 9 10 10 10 10
13 14 19 14 11 11 10 10 9 9 8 8 6 7 8 5 5 5 5 5 5 5 5 5 5 6 6 5 6 6 7 7 7 7 7 8 8 8 8 9 10 10 10
12 11 11 12 11 10 10 9 8 8 8 8 6 6 9 5 4 4 4 4 4 4 5 5 5 5 5 6 6 6 7 7 7 7 8 8 8 8 8 9 9 9 10
11 12 12 11 10 13 12 8 8 7 7 6 5 4 4 3 3 3 3 3 3 3 4 4 4 4 5 5 5 6 7 7 7 7 8 8 8 8 8 9 10 10 10
11 12 12 11 10 9 9 8 7 7 6 5 4 4 3 3 2 2 2 2 2 3 3 3 4 5 6 5 4 5 6 7 6 7 9 9 9 8 9 9 10 11 10
11 11 11 10 10 9 9 8 7 6 5 4 3 3 2 2 2 2 2 2 2 2 3 3 3 4 5 6 6 6 10 13 12 8 7 7 8 9 9 10 9 10 10
10 11 10 9 9 8 8 7 7 6 4 3 3 2 2 1 1 1 1 2 2 2 2 2 3 4 5 5 7 10 12 13 13 13 7 5 7 8 8 8 10 9 9
Wind_Direction
244 241 244 246 245 245 245 246 246 244 239 237 232 226 222 219 217 218 221 218 220 222 219 219 220 215 216 216 215 217 222 225 243 248 242 242 241 249 261 261 262 262 264
263 258 257 258 257 254 254 253 249 247 242 239 236 232 228 223 218 219 221 220 221 222 220 218 219 216 216 215 215 219 222 223 234 248 249 246 245 247 252 256 263 264 260
293 278 273 270 265 261 260 260 255 251 248 242 237 236 233 228 222 220 221 221 221 222 220 219 218 214 217 216 217 221 224 228 230 241 250 248 252 252 255 260 259 259 263
308 297 286 278 272 268 266 264 261 256 252 247 242 239 236 231 225 221 220 221 222 221 219 218 217 215 217 216 218 221 222 225 228 237 247 250 252 247 248 257 263 255 260
307 299 291 286 282 277 274 270 266 261 258 252 248 244 238 232 229 223 220 221 221 221 219 218 218 219 221 220 221 220 220 223 228 236 243 248 250 247 247 249 260 263 257
303 296 293 289 285 279 275 273 270 267 262 256 251 247 242 238 241 237 229 221 220 220 221 219 221 228 230 230 230 228 222 222 225 231 239 243 246 243 248 252 258 267 271
299 295 293 290 287 283 281 280 276 272 266 260 255 249 246 242 244 245 240 227 219 220 219 218 222 225 228 229 235 238 236 235 233 233 239 242 245 244 246 254 255 259 265
299 295 293 294 295 295 293 288 284 278 271 266 261 254 250 247 250 249 245 235 222 218 218 216 218 221 222 222 224 231 236 240 242 242 241 246 249 249 245 252 259 264 265
299 297 299 302 302 300 296 290 287 283 277 270 265 258 253 252 253 252 248 234 225 221 217 215 217 220 228 229 226 227 233 238 246 248 249 251 255 260 260 260 261 265 270
300 301 303 303 301 298 294 292 289 283 279 277 272 262 255 252 255 255 249 233 227 223 216 217 224 225 229 232 228 225 231 234 234 244 251 257 260 264 268 261 256 264 272
303 303 301 298 296 295 295 293 290 286 282 279 275 268 258 255 259 256 251 233 225 223 219 217 221 230 232 232 233 229 236 236 229 235 242 245 247 247 250 247 242 246 259
302 301 300 298 298 300 297 295 291 288 285 282 279 276 264 258 259 257 254 247 235 222 221 218 220 227 232 235 237 238 241 243 232 230 237 241 243 244 244 242 240 239 243
304 302 301 301 299 298 297 296 295 289 284 282 279 279 274 255 255 258 257 252 244 231 221 223 225 230 232 236 240 241 242 235 225 231 240 244 241 241 245 250 250 249 253
304 303 303 303 301 299 294 290 289 287 283 281 278 277 274 263 248 242 243 251 247 242 232 229 231 233 230 227 233 240 233 225 225 233 239 243 242 245 250 251 259 261 267
305 304 303 301 300 300 294 288 285 275 276 281 275 267 270 269 257 251 239 229 226 231 217 209 214 217 217 217 217 220 219 226 238 229 234 242 249 255 259 254 256 260 264
307 305 303 302 301 298 296 294 284 280 287 284 279 275 267 266 269 263 254 244 237 229 226 218 219 218 220 221 219 217 216 221 224 227 232 240 249 256 263 263 261 261 266
303 304 304 301 300 298 297 297 299 295 287 286 284 281 277 273 269 261 254 245 237 232 228 222 222 218 217 215 212 213 218 221 219 226 235 239 247 257 263 266 265 266 268
302 303 303 299 297 296 295 293 293 295 297 289 285 283 280 275 268 258 248 244 235 229 224 223 220 213 210 211 212 215 218 220 222 228 233 239 244 255 263 266 266 265 270
303 303 301 298 296 294 293 292 290 288 288 288 286 281 276 275 269 256 245 237 226 221 221 219 213 208 208 210 212 213 216 222 227 230 236 240 244 251 260 263 266 271 273
303 302 305 303 301 299 298 296 293 291 290 287 284 278 273 265 253 246 237 228 222 218 216 214 210 206 205 207 207 210 219 227 231 234 240 244 245 250 257 261 265 268 270
304 305 307 306 303 301 298 294 292 291 289 287 281 276 273 257 248 240 231 221 219 215 210 209 208 205 205 204 206 212 221 231 234 238 243 246 248 253 258 261 263 265 269
305 306 306 303 302 300 298 294 292 290 288 288 288 284 280 269 251 236 227 223 221 211 203 203 206 206 205 205 209 217 227 234 237 240 244 248 250 254 259 262 264 266 268
305 305 305 304 302 303 303 298 295 292 290 287 284 277 271 261 247 231 222 220 218 211 201 200 206 212 213 212 213 217 228 236 239 240 246 254 257 259 260 263 264 267 268
305 305 305 305 304 304 303 302 298 295 291 286 280 272 262 258 245 227 210 215 218 209 198 200 209 216 218 223 226 229 233 241 241 242 243 251 257 262 264 265 266 267 269
307 306 305 304 305 307 306 304 301 297 292 286 281 273 263 253 233 214 207 215 217 210 207 211 217 221 224 230 237 244 252 258 262 260 251 252 257 260 265 267 269 270 267
307 306 306 306 306 307 306 305 304 302 298 293 284 269 260 249 221 211 215 211 213 214 217 225 226 232 239 245 248 256 264 267 270 272 269 259 259 264 268 271 273 271 271
Height
1443 1440 1437 1433 1430 1426 1422 1418 1415 1412 1410 1408 1406 1404 1402 1400 1399 1399 1397 1398 1399 1399 1401 1402 1403 1407 1408 1410 1412 1413 1414 1414 1411 1410 1414 1415 1415 1415 1415 1414 1413 1411 1410
1438 1434 1430 1427 1423 1419 1414 1411 1407 1403 1400 1398 1395 1393 1391 1389 1388 1386 1386 1386 1387 1387 1389 1391 1392 1396 1397 1400 1402 1402 1403 1404 1404 1402 1403 1405 1405 1405 1405 1404 1403 1401 1400
1433 1428 1424 1420 1415 1411 1406 1402 1398 1394 1390 1387 1384 1382 1380 1378 1377 1375 1375 1375 1375 1376 1378 1380 1381 1385 1386 1389 1391 1392 1394 1395 1395 1395 1393 1395 1395 1396 1395 1393 1393 1391 1390
1426 1421 1417 1412 1407 1403 1398 1393 1389 1385 1380 1376 1373 1371 1369 1368 1366 1365 1364 1364 1364 1366 1367 1369 1372 1374 1376 1379 1381 1383 1385 1386 1386 1386 1385 1385 1386 1386 1386 1384 1381 1380 1379
1419 1414 1409 1404 1399 1394 1389 1384 1379 1375 1370 1366 1363 1360 1358 1356 1355 1355 1354 1354 1355 1356 1357 1359 1361 1364 1367 1370 1372 1373 1376 1376 1377 1377 1376 1377 1376 1376 1375 1374 1372 1370 1368
1412 1406 1401 1395 1390 1385 1380 1375 1370 1365 1361 1357 1352 1349 1347 1345 1345 1345 1345 1344 1344 1345 1347 1349 1352 1356 1358 1361 1363 1364 1366 1366 1367 1367 1367 1367 1366 1366 1367 1366 1364 1362 1357
1404 1398 1393 1387 1381 1376 1371 1366 1361 1355 1351 1347 1343 1339 1336 1334 1335 1335 1336 1335 1334 1334 1337 1339 1342 1345 1349 1351 1354 1356 1357 1358 1359 1359 1358 1357 1357 1358 1358 1356 1355 1352 1348
1397 1391 1386 1380 1374 1369 1363 1358 1352 1347 1342 1337 1333 1330 1327 1325 1325 1325 1326 1326 1324 1324 1326 1329 1332 1335 1339 1342 1344 1345 1347 1348 1350 1350 1349 1349 1349 1349 1349 1347 1345 1342 1338
1390 1384 1379 1373 1367 1361 1355 1349 1344 1338 1333 1329 1325 1322 1319 1316 1317 1316 1317 1316 1315 1315 1317 1320 1323 1325 1329 1334 1335 1335 1337 1337 1340 1341 1341 1341 1341 1341 1341 1339 1336 1333 1328
1383 1377 1372 1366 1360 1353 1347 1341 1336 1331 1325 1321 1317 1314 1311 1308 1308 1308 1308 1308 1307 1308 1309 1311 1314 1316 1320 1324 1326 1326 1327 1327 1330 1331 1332 1332 1332 1331 1331 1331 1328 1325 1320
1376 1370 1364 1359 1353 1346 1340 1334 1329 1323 1318 1313 1309 1306 1303 1301 1300 1299 1300 1300 1299 1300 1301 1302 1305 1308 1312 1315 1317 1318 1318 1320 1321 1322 1322 1322 1321 1321 1320 1320 1319 1316 1313
1368 1362 1356 1351 1345 1339 1333 1327 1322 1316 1311 1306 1302 1298 1296 1294 1293 1291 1292 1292 1293 1293 1294 1296 1298 1301 1304 1307 1309 1310 1312 1314 1314 1314 1313 1312 1312 1311 1310 1310 1308 1307 1304
1360 1354 1348 1343 1337 1332 1326 1320 1314 1310 1305 1299 1295 1291 1288 1287 1286 1285 1285 1285 1286 1287 1287 1290 1292 1295 1297 1299 1301 1303 1305 1306 1306 1305 1305 1304 1304 1303 1302 1301 1299 1297 1294
1353 1347 1341 1335 1329 1324 1319 1313 1308 1303 1298 1294 1289 1286 1282 1280 1279 1279 1278 1278 1279 1281 1282 1284 1287 1289 1291 1292 1294 1295 1296 1297 1298 1297 1297 1297 1296 1295 1294 1292 1290 1288 1285
1346 1340 1334 1328 1322 1316 1311 1307 1301 1297 1293 1288 1284 1281 1277 1274 1273 1273 1272 1272 1273 1274 1277 1278 1280 1282 1284 1285 1286 1287 1289 1290 1290 1290 1290 1289 1288 1287 1286 1284 1283 1280 1277
1339 1333 1327 1321 1315 1309 1303 1298 1294 1290 1286 1282 1279 1276 1272 1270 1269 1268 1268 1268 1268 1270 1272 1272 1274 1275 1277 1278 1279 1280 1281 1282 1283 1283 1283 1282 1281 1280 1278 1277 1275 1272 1269
1333 1326 1320 1314 1308 1302 1297 1291 1285 1281 1279 1275 1272 1269 1267 1265 1263 1263 1263 1263 1264 1265 1266 1267 1268 1269 1271 1272 1273 1274 1275 1276 1276 1276 1276 1275 1274 1273 1271 1269 1267 1265 1261
1327 1320 1314 1307 1302 1296 1291 1286 1280 1275 1271 1267 1266 1263 1261 1259 1258 1258 1258 1259 1259 1260 1261 1261 1262 1264 1265 1266 1267 1268 1268 1269 1269 1269 1269 1268 1267 1266 1264 1262 1260 1257 1254
1320 1313 1307 1301 1295 1290 1285 1280 1275 1270 1266 1262 1259 1257 1256 1254 1253 1253 1253 1253 1254 1254 1255 1256 1257 1258 1259 1261 1261 1262 1262 1262 1262 1262 1261 1261 1260 1258 1256 1255 1252 1250 1248
1313 1307 1301 1295 1289 1284 1279 1274 1269 1265 1261 1257 1255 1253 1251 1250 1248 1248 1248 1248 1249 1250 1250 1251 1252 1254 1254 1255 1256 1256 1256 1256 1256 1255 1255 1254 1253 1251 1249 1247 1245 1243 1240
1306 1300 1294 1289 1283 1278 1273 1268 1264 1260 1257 1253 1251 1249 1247 1246 1244 1244 1244 1244 1245 1245 1246 1247 1248 1248 1249 1250 1250 1250 1250 1250 1249 1249 1248 1247 1246 1244 1242 1240 1238 1235 1232
1300 1294 1288 1282 1277 1272 1268 1263 1259 1256 1252 1249 1246 1244 1243 1242 1240 1240 1240 1241 1241 1242 1242 1243 1243 1244 1244 1245 1245 1245 1244 1244 1243 1242 1241 1240 1239 1237 1235 1233 1230 1228 1225
1294 1288 1282 1277 1272 1267 1263 1259 1255 1251 1248 1245 1243 1240 1239 1238 1237 1237 1237 1238 1238 1238 1239 1239 1239 1240 1240 1240 1240 1239 1239 1238 1237 1236 1235 1233 1231 1230 1228 1225 1223 1221 1218
1288 1282 1276 1272 1267 1263 1259 1255 1251 1247 1244 1241 1239 1237 1236 1235 1234 1234 1235 1235 1235 1235 1236 1236 1236 1236 1235 1235 1235 1234 1233 1232 1231 1230 1229 1227 1225 1223 1221 1218 1216 1213 1211
1282 1277 1272 1267 1263 1259 1255 1251 1247 1244 1241 1238 1236 1234 1233 1232 1232 1232 1232 1233 1233 1233 1233 1233 1232 1232 1231 1231 1230 1229 1228 1227 1226 1224 1223 1221 1218 1216 1214 1211 1209 1206 1204
1277 1272 1267 1263 1259 1255 1251 1248 1244 1241 1238 1236 1234 1232 1231 1231 1230 1230 1230 1230 1230 1230 1230 1230 1229 1228 1228 1227 1225 1224 1223 1222 1220 1219 1217 1215 1212 1209 1207 1205 1202 1200 1198